軌道要素
Epoch 2023 Feb. 25.0 TT = JDT 2460000.5
T 2023 Jan. 20.38316 TT Rudenko
q 0.9473094 (2000.0) P Q
z +0.0020496 Peri. 142.56992 +0.11160775 -0.01762965
+/-0.0001217 Node 94.46856 -0.96373780 -0.24579619
e 0.9980584 Incl. 94.70834 +0.24239051 -0.96916120
>From 66 observations 2023 Feb. 14-Apr. 17, mean residual 0".7.
|